Theta_e
317 317 317 317 318 317 317 317 317 316 315 315 315 315 315 315 314 305 299 305 308 317 319 305 305 304 300 296 295 296 288 286 289 293 294 303 301 311 311 312 325 327 329 333 342
315 315 316 316 316 317 316 316 316 316 316 315 315 315 316 315 305 301 310 316 320 321 307 298 297 299 293 294 294 290 285 289 293 295 295 301 301 304 305 305 315 324 333 339 340
314 314 314 315 315 316 315 315 316 316 316 315 314 314 314 312 296 295 316 319 321 322 309 303 301 297 291 291 290 290 288 292 295 298 299 300 300 304 303 302 307 315 329 333 334
314 314 314 314 314 315 314 315 315 315 315 315 314 314 314 306 287 304 334 327 323 317 312 302 297 290 288 289 292 287 292 295 295 298 298 299 302 303 304 304 309 316 328 328 331
314 314 314 314 314 314 315 314 314 315 315 315 313 313 307 296 297 305 319 333 320 314 307 299 293 291 288 290 291 287 291 294 298 298 298 300 300 301 302 306 310 325 326 325 328
315 315 315 314 314 315 315 314 314 314 314 314 314 313 304 293 306 307 317 318 316 309 304 297 295 293 291 292 291 293 294 295 295 295 296 297 299 301 304 307 307 310 311 322 328
316 315 315 315 315 315 315 314 313 313 313 314 314 311 303 298 309 309 312 311 315 310 303 302 297 295 294 293 296 296 291 294 295 295 295 297 295 298 303 305 306 306 308 309 314
316 316 316 316 315 315 315 314 312 312 313 314 315 308 298 310 310 308 307 305 310 313 304 304 300 294 292 295 296 291 288 284 294 296 297 297 291 300 303 303 304 305 305 307 308
315 315 314 314 315 315 315 313 311 313 314 315 309 304 297 313 309 312 307 305 304 309 306 306 298 293 295 289 286 287 284 286 290 296 296 295 291 299 303 302 301 303 303 305 307
315 315 314 314 314 314 314 312 311 312 314 312 311 301 304 302 310 310 309 308 304 302 300 298 294 292 288 286 282 286 285 287 288 293 293 292 291 296 300 301 301 301 303 303 305
315 314 313 313 313 313 310 302 304 302 306 299 301 303 305 311 315 305 308 306 304 300 293 295 290 288 290 291 292 291 290 289 292 296 293 292 292 295 298 296 297 298 299 300 302
314 314 313 312 313 312 308 298 302 306 298 305 306 305 310 311 305 308 309 301 298 292 294 292 288 295 296 295 294 293 290 290 293 296 293 292 292 295 296 296 297 298 298 299 299
313 313 312 312 311 306 303 302 307 305 295 302 307 305 307 309 305 305 305 303 297 293 293 289 293 299 296 294 292 291 289 290 291 294 294 291 289 291 295 296 297 298 299 300 300
313 312 312 312 304 302 302 308 308 306 292 298 303 307 309 309 303 311 308 304 297 293 294 293 297 297 295 293 294 288 295 294 293 289 284 290 281 287 292 294 296 297 296 298 300
312 312 312 312 303 299 308 309 306 302 283 304 304 313 308 303 302 304 308 303 297 296 295 292 294 293 292 293 295 291 296 293 292 287 285 286 282 286 291 293 294 295 297 298 300
312 312 312 305 304 304 308 308 304 293 286 302 304 302 300 301 301 303 302 305 304 296 297 295 299 297 295 297 296 297 291 289 286 284 279 284 284 285 289 291 294 297 299 301 299
311 312 309 308 298 306 306 303 292 289 303 299 300 299 298 297 299 300 297 296 292 289 289 293 293 297 299 294 294 291 284 279 278 278 279 286 284 286 292 296 298 299 300 300 298
309 309 304 306 306 306 305 297 288 298 298 304 303 300 296 298 297 300 296 292 296 295 290 288 286 295 299 296 293 289 286 280 276 276 279 288 283 287 300 301 301 301 300 301 300
308 299 299 305 307 305 302 291 294 298 302 298 299 295 296 301 299 300 299 298 297 295 290 289 290 301 302 302 299 292 288 290 283 282 280 283 288 293 300 301 301 300 301 299 299
299 297 301 310 308 305 297 294 300 305 304 300 293 296 291 293 296 298 297 301 301 302 297 293 289 298 300 302 301 298 298 289 286 279 277 282 284 285 294 296 299 298 296 297 298
295 297 309 312 309 301 292 295 303 307 306 298 295 293 293 292 295 295 296 301 303 302 301 296 292 293 297 294 291 293 292 293 290 289 281 279 283 297 297 297 297 298 299 299 297
293 292 308 309 297 299 296 301 303 305 304 301 299 296 294 293 292 294 294 297 302 301 296 297 292 288 292 297 299 293 291 291 285 283 285 283 284 300 301 301 302 301 303 301 300
291 292 305 306 293 295 299 302 304 301 298 298 296 297 295 291 287 292 296 298 300 299 294 295 288 283 286 289 294 292 293 292 291 288 284 281 285 300 301 302 303 301 302 306 304
291 290 297 298 298 295 294 295 295 301 298 298 297 297 293 289 289 287 292 296 299 298 304 297 288 285 281 285 289 287 290 291 289 285 286 289 289 295 297 299 301 303 303 303 303
292 292 294 290 293 294 294 295 295 294 297 296 294 294 291 285 287 286 289 291 296 300 296 291 284 286 287 290 290 289 289 288 287 288 285 287 289 294 295 296 298 302 304 302 302
292 292 295 293 296 294 293 293 294 294 294 293 290 292 291 286 287 285 288 287 288 293 290 291 283 285 284 289 289 287 289 290 290 290 289 290 289 295 298 299 297 297 297 297 296
298 296 294 292 293 291 291 294 296 295 296 296 294 291 289 290 292 292 292 292 291 289 288 287 288 283 280 286 286 281 285 287 290 292 290 285 290 294 293 294 292 292 294 295 295
Wind_Speed
16 16 15 15 14 13 13 13 13 12 11 11 11 11 12 13 14 3 11 14 12 13 7 2 5 5 4 2 3 4 2 8 6 7 4 9 3 3 2 6 3 3 4 5 19
16 15 15 15 14 13 13 13 13 13 13 11 11 11 11 13 5 12 16 15 18 13 3 5 3 5 3 4 3 5 5 9 4 2 4 6 7 9 9 12 2 3 7 19 19
17 17 16 16 16 14 14 13 13 12 12 12 10 10 10 8 5 10 1 19 18 12 5 6 4 4 4 2 4 6 10 5 9 7 8 15 14 6 8 14 8 8 14 18 18
17 18 18 17 17 16 16 16 15 14 13 10 10 9 10 2 6 2 6 16 20 9 5 6 5 5 4 7 6 5 5 8 5 7 7 18 6 16 14 16 12 12 15 10 12
18 18 18 18 18 17 16 16 16 16 14 12 7 7 3 1 14 7 12 3 16 11 10 8 8 7 7 5 3 4 6 8 10 14 15 11 14 16 17 16 11 11 16 18 12
17 17 18 19 19 18 17 16 14 14 15 13 7 4 1 6 6 6 6 13 12 10 8 7 9 8 6 7 8 7 15 17 10 11 8 8 15 5 17 15 12 13 5 12 19
15 15 17 19 19 19 18 18 16 16 16 13 7 6 5 22 2 7 2 6 14 10 9 7 4 7 6 6 9 8 5 9 10 9 12 5 12 10 20 8 10 6 11 10 11
16 16 17 18 19 19 19 18 20 19 16 12 9 5 11 6 5 9 4 4 8 8 2 8 4 1 4 4 6 4 3 2 13 9 11 11 17 15 16 7 11 8 6 9 10
18 19 21 21 20 19 18 18 23 18 10 9 6 4 13 5 6 10 8 10 7 6 5 1 7 6 2 2 4 4 4 6 10 11 8 10 12 19 13 9 10 9 9 9 8
20 18 20 21 20 17 16 18 14 5 9 7 2 2 7 5 5 6 8 8 5 8 5 7 6 4 1 4 5 5 3 3 4 5 3 7 5 6 9 9 12 10 9 9 9
22 21 21 21 21 16 6 5 2 2 7 12 10 6 3 4 5 6 7 8 4 4 6 7 4 8 8 7 2 3 4 5 6 10 5 8 6 10 10 5 9 11 8 9 11
22 23 23 22 22 15 2 4 8 4 7 24 16 15 11 7 6 4 9 7 6 7 4 3 7 11 7 5 5 6 4 6 9 6 3 7 7 8 6 8 12 13 10 9 5
21 21 23 26 25 1 6 10 4 4 4 5 11 10 8 8 7 7 10 7 5 6 5 7 10 3 4 8 6 6 5 6 7 7 3 2 7 6 5 4 4 6 7 6 11
23 24 23 23 3 2 6 8 9 4 1 3 5 7 7 5 4 8 9 8 3 9 7 6 9 10 5 7 7 6 8 10 7 3 4 3 5 6 6 8 1 1 3 9 9
25 25 20 9 9 4 3 3 7 2 1 5 3 4 6 9 2 6 6 4 9 6 6 8 2 2 3 5 5 11 6 10 6 4 5 2 4 8 6 7 7 5 7 9 10
26 26 22 5 4 12 10 6 2 3 4 6 2 5 4 1 1 4 5 4 4 5 3 7 3 3 6 5 4 6 2 8 5 4 1 5 6 6 3 4 7 7 9 8 10
28 28 19 6 7 4 5 2 2 2 0 5 1 2 4 4 1 1 5 4 5 3 7 5 5 5 5 4 4 5 6 2 4 3 6 3 3 9 7 5 3 4 7 9 7
30 31 5 7 8 9 2 4 4 2 4 4 7 4 4 3 2 1 3 3 5 4 3 5 6 6 2 3 4 1 6 7 5 3 4 5 3 5 4 3 3 4 6 11 10
27 4 4 5 11 1 4 1 3 3 11 3 1 4 4 3 3 4 3 3 3 4 7 4 4 1 4 2 5 3 2 4 6 3 3 3 5 5 5 7 6 6 15 14 12
6 5 5 4 11 4 4 5 4 1 6 2 3 4 3 5 2 3 5 6 7 4 2 4 2 3 2 1 3 2 6 3 4 2 3 5 3 5 2 3 3 5 6 8 9
3 5 3 6 3 5 3 5 3 3 6 3 3 4 4 3 3 2 3 3 9 7 6 3 3 4 2 3 2 6 4 5 3 4 5 3 6 3 4 3 5 3 3 4 6
3 4 2 1 3 1 2 3 2 4 1 2 4 5 2 4 3 2 4 4 9 3 2 2 3 2 5 2 5 1 3 4 6 5 4 3 6 1 3 3 2 5 3 2 5
4 4 6 3 3 2 3 4 2 2 4 3 4 4 4 3 2 4 4 5 8 5 3 3 1 1 7 5 5 6 3 4 4 4 5 5 6 2 2 4 5 4 6 5 2
2 4 5 4 1 1 1 3 3 6 5 6 4 4 4 3 4 1 2 5 6 3 9 3 2 4 6 1 1 2 1 2 5 4 3 8 6 7 6 7 7 7 8 9 7
1 3 1 4 3 3 2 3 2 3 3 4 4 3 3 1 3 2 3 5 4 8 5 5 2 1 2 4 3 4 7 7 8 8 11 7 14 13 10 9 10 7 7 5 7
1 2 5 4 5 4 5 3 3 3 3 2 6 5 3 4 4 4 2 1 3 4 3 3 1 3 3 4 7 8 8 12 15 16 16 17 19 9 15 10 5 3 4 6 5
3 2 3 4 5 2 3 5 2 7 6 5 7 4 1 4 4 6 6 5 4 6 2 1 3 2 4 1 5 7 9 8 6 9 8 13 9 4 3 4 6 5 6 7 5
Wind_Direction
342 340 338 337 336 336 337 337 332 339 324 309 303 303 308 309 308 243 234 216 194 233 156 24 64 116 90 235 213 125 213 229 215 185 224 279 312 249 294 299 332 116 131 138 133
335 333 332 331 330 328 328 329 328 330 335 315 306 306 310 316 266 236 234 196 206 172 159 151 117 112 129 207 228 163 199 221 186 223 280 293 303 323 341 328 107 27 86 131 139
330 329 329 328 326 323 321 322 321 321 324 330 309 307 312 323 288 249 277 196 186 153 127 133 127 138 172 146 217 210 233 204 272 269 278 282 282 303 295 293 245 199 144 141 139
326 326 326 325 323 320 318 319 317 318 325 325 315 312 316 283 298 268 81 173 184 171 113 133 127 132 178 202 228 256 235 223 250 248 255 264 282 268 262 253 275 230 151 140 152
325 324 322 320 318 315 313 314 314 314 316 313 317 305 336 342 248 279 312 100 155 159 174 161 147 158 176 202 200 242 269 263 232 239 240 255 256 260 285 278 286 148 156 149 169
318 318 318 316 313 311 310 309 307 305 307 305 294 263 284 268 245 267 134 129 163 160 172 161 188 181 178 219 184 219 226 249 260 255 261 253 248 148 267 277 252 129 156 185 167
309 310 311 310 309 313 313 310 306 303 301 294 256 218 239 243 260 350 57 178 169 176 168 206 180 159 159 261 229 237 245 244 236 238 244 205 283 211 259 236 237 220 157 187 179
310 306 305 305 310 314 311 308 306 302 292 276 202 205 251 252 269 277 202 259 185 197 140 184 149 168 213 281 332 248 107 243 249 213 247 145 259 255 233 172 226 206 234 183 179
314 317 316 314 313 316 307 305 303 298 266 185 168 215 263 293 226 234 189 211 154 187 204 305 137 210 251 134 359 354 248 218 298 195 212 160 236 246 229 199 229 208 205 218 234
316 313 314 314 315 311 312 307 292 296 127 163 237 251 250 244 186 191 198 182 174 130 155 197 211 199 265 137 203 236 284 304 275 334 194 229 239 267 244 200 224 215 233 189 218
318 318 316 315 314 315 336 348 135 155 225 199 192 244 279 317 224 185 162 152 189 150 178 190 148 220 235 222 170 218 236 246 272 270 257 235 235 240 246 207 256 256 238 234 200
318 320 318 317 314 310 269 231 233 127 279 223 241 253 280 325 310 291 132 154 139 206 154 354 232 229 229 231 214 207 239 258 274 272 159 301 298 273 259 229 202 218 234 241 260
317 318 320 319 317 29 201 230 233 19 265 261 193 223 223 171 213 254 148 171 165 192 177 188 238 22 189 265 248 246 203 255 210 322 269 302 310 331 311 252 220 212 199 224 221
316 316 323 328 344 338 239 254 241 106 314 230 202 251 169 194 250 223 183 154 209 197 175 219 268 251 241 245 185 271 227 239 261 125 251 66 274 304 332 326 19 270 288 267 232
311 310 315 327 289 252 220 87 128 108 341 2 166 141 155 160 164 212 169 135 189 204 127 232 263 171 278 227 160 240 280 200 235 185 116 315 82 272 335 317 299 297 237 261 243
310 308 316 307 205 240 302 319 183 33 260 320 117 156 130 204 286 329 131 108 170 187 234 242 250 227 235 264 225 265 113 47 47 90 59 234 138 284 242 257 314 317 321 291 240
312 307 302 234 226 144 267 128 15 204 218 295 245 139 151 179 268 246 145 143 186 153 248 297 259 218 222 277 32 73 51 319 333 351 214 131 91 232 292 303 276 283 329 337 319
315 310 256 207 223 267 334 57 231 242 248 182 304 356 131 133 239 284 109 172 248 181 152 200 318 181 165 191 198 153 145 149 218 220 272 321 235 248 294 85 31 73 72 41 24
318 313 263 242 193 189 86 150 225 297 334 341 328 62 337 60 91 74 14 50 344 193 174 194 255 356 68 297 161 185 97 186 104 15 71 257 289 316 2 43 31 64 80 73 46
316 327 265 138 158 99 85 244 234 294 314 295 83 49 36 357 91 73 16 26 339 27 164 204 289 3 345 1 12 135 165 87 9 168 255 292 265 232 251 136 50 40 60 94 106
355 335 278 154 114 65 198 239 289 287 331 8 78 72 65 8 71 133 144 21 298 292 68 11 104 276 28 32 59 357 357 62 95 154 158 267 261 272 222 193 142 97 36 91 95
1 321 233 268 65 135 216 223 272 262 52 74 74 86 102 54 35 94 110 14 330 323 47 13 110 264 258 263 211 93 97 98 143 217 230 193 257 320 55 309 346 290 200 100 92
325 265 302 103 208 223 277 275 227 195 26 72 76 43 52 55 123 56 93 335 3 45 51 342 27 44 335 2 21 61 47 88 67 66 226 181 258 206 214 295 304 300 267 185 221
345 334 317 30 6 154 332 258 138 24 57 67 93 64 69 73 24 39 94 3 1 56 38 80 83 167 192 196 171 293 251 200 161 181 227 240 298 284 269 271 263 239 268 323 325
191 260 181 303 330 338 263 271 165 133 71 63 52 79 150 141 23 94 50 4 1 357 33 76 162 333 286 302 292 256 288 288 209 220 222 220 228 243 257 261 253 249 264 267 286
260 6 346 290 295 320 13 233 164 100 105 94 129 162 127 158 174 202 118 230 239 3 59 352 244 20 288 273 277 283 276 252 256 255 248 245 254 238 250 269 262 266 136 99 70
315 312 108 289 332 14 329 288 176 115 17 120 145 132 174 190 192 215 191 195 195 155 114 136 113 38 267 57 330 294 246 249 260 230 217 232 241 218 240 99 113 98 107 109 95